CZ-4 DEB, 26152

Orbit data source: Space-Track

CZ-4 DEB, 26152 is space debris in SSO originally from a launch on Thu, 14 Oct 1999 UTC launched from the Taiyaun Space Center, China (TSC). Debris objects in space refer to the collection of defunct objects orbiting the Earth. Examples of debris include non-operational satellites, rocket bodies, and fragments generated from explosions, collisions, or faulty payload assembly.

Loading next visibility...
CZ-4 DEB details
Identifier
26152, 1999-057AN
Orbit
SSO
Last TLE update21 hours ago
Origin
Flag of CNCNSA (CN / PRC)
ManufacturerUnknown
MissionSpacecraft
Bus & MotorUnknown
MassUnknown
Launch date (UTC)
1999-10-14 (25 years ago)
Launch vehicleUnknown
Launch site
Taiyaun Space Center, China (TSC)
Object type
Payload
Rocket body
Debris
Shape & HBRUnknown
Radar Cross SectionSmall (<0.1 m²)

Expand to show TLE details & history

TLE from 21 hours ago
0 CZ-4 DEB
1 26152U 99057AN  24355.71421291  .00000508  00000-0  47132-3 0  9995
2 26152  99.1839  44.3553 0523149 222.8582 272.0037 13.37766523205410
Epoch: 2024-12-20T17:08Z
Definitive object data (Epoch: 2024-12-20T17:08:27.995Z)
Latitude50.32507°
Longitude-111.35549°
Altitude1,132.353 km
Speed7.288 km/s
True Right ascension15h 42m 08s
True Declination50° 09' 52"
Sunlit
Object was in daylight at TLE epoch
Visualization TLE readout
Latitude12.47197°
Longitude56.21437°
Altitude1,461.13 km
Speed6.969 km/s
Apparent Right ascension02h 10m 54s
Apparent Declination-11° 02' 35"
Sunlit
Object is in full shadow
Visualization observer readout
Local Sidereal Time13:05:28
Azimuth328.856° NNW
Elevation-57.696°
Doppler factor1
Orbital elements
Apogee altitude1,506.889 km
Perigee altitude722.895 km
Semi-major axis7,493.029 km
Eccentricity0.0523149
Inclination99.1839°
RAAN44.3553°
Arg. of periapsis222.8582°
True anomaly266.00975°
Mean anomaly272.0037°
Eccentric anomaly269.00673°
Mean motion3.34624 °/min
BSTAR0.00047132
Orbital period107.58 mins
Loading maneuver chart data...
Loading historical data...
Loading historical data...
Loading historical data...
Loading historical data...
Loading historical data...
Loading historical data...
Loading historical data...

CZ-4 DEB Visibility forecast

Observer location: undefined°, undefined

Span
Click to sort rows by Start time (UTC) header in descending order
Start Az.
Max El. time (UTC)
Max El. Az.
Max El.
End time (UTC)
End Az.
4 mins2024-12-21 14:42:24.723Z66.673° ENE2024-12-21 14:44:24.723Z85.842° E12.545°2024-12-21 14:46:24.723Z105.763° ESE
11 mins2024-12-21 16:26:24.723Z13.318° NNE2024-12-21 16:31:24.723Z348.387° N44.83°2024-12-21 16:37:24.723Z197.278° SSW
5 mins2024-12-21 18:14:24.723Z327.422° NNW2024-12-21 18:16:24.723Z308.232° NW15.031°2024-12-21 18:19:24.723Z278.516° WNW
4 mins2024-12-22 01:01:24.723Z61.43° ENE2024-12-22 01:03:24.723Z47.099° ENE12.538°2024-12-22 01:05:24.723Z32.917° NE
15 mins2024-12-22 02:40:24.723Z138.848° SSE2024-12-22 02:47:24.723Z66.747° ENE39.27°2024-12-22 02:55:24.723Z355.094° N
13 mins2024-12-22 04:27:24.723Z207.166° SW2024-12-22 04:33:24.723Z263.822° W31.307°2024-12-22 04:40:24.723Z326.369° NNW
|